shoulder
new_line
new_line
first
second
third
Al di la della Luna; Beyond the Moon; Astrophotography; Astrofotografia; Danilo Pivato
 
 
         
         
1999

Orbital Elements

Epoch 1999 August 17.0 TT = JDT 2451407.5
T 1999 July 11.172153335 TT                                                                JPL
q   0.7081071290            (2000.0)                                    P               Q
n   6.7455069576      Peri.      40.7015674       -0.00000000     +0.00000000
a   2774.1268740      Node   162.6508965       -0.00000000     +0.00000000
e   0.9997447459      Incl.     149.3529052       -0.00000000     -0.00000000
 
 
         
         
1999.09.13
 
         
         
       
         
         
         
         
         
         

 

       
 
Since: 01/01/2004
 
       
 
Since: 01/11/2010